Orbital Elements at Epoch 2459000.5 (2020-May-31.0) TDB
Reference: JPL 17 (heliocentric ecliptic J2000)
Element | Value | Uncertainty (1-sigma) | Units |
e | .1440581352618747 | 3.9463e-08 | |
a | 2.741880201133211 | 2.6501e-08 | au |
q | 2.346890052246507 | 1.0231e-07 | au |
i | 14.92415810405188 | 5.6517e-06 | deg |
node | 199.0275599834863 | 1.6502e-05 | deg |
peri | 96.95918745108384 | 2.5395e-05 | deg |
M | 120.6694345677999 | 1.9688e-05 | deg |
tp | 2458444.639367596175 (2018-Nov-22.13936760) | 8.8849e-05 | TDB |
period | 1658.330698093579 4.54 | 2.4042e-05 6.582e-08 | d yr |
n | .2170857721043559 | 3.1473e-09 | deg/d |
Q | 3.136870350019916 | 3.0319e-08 | au |
|
| | Orbit Determination Parameters
Additional Information
|